Wetbulb
29.75 25.98 22.37 25.28 29.46 29.53 28.33 26.51 25.18 27.16 31.36 29.12 27.23 27.37 29.86 32.85 31.54 31.26 33.14 30.89 31.99 34.19 38.71 42.04 51.24 58.23 59.69 60.71 61.20 61.41 62.92 63.49 63.62 62.71 61.57 60.93 58.92 58.55 58.24 58.87 59.17 58.69 59.23 59.66
26.34 22.30 28.19 30.74 30.67 28.35 26.81 24.25 23.59 26.98 30.15 28.83 26.56 25.52 29.62 31.65 31.82 32.06 32.84 33.75 31.72 33.33 35.78 40.71 45.10 53.15 57.86 59.55 60.83 60.92 62.14 63.24 63.35 63.00 62.46 61.51 60.54 58.85 57.92 57.97 58.86 59.56 59.49 59.89
22.82 25.79 30.85 28.96 28.03 25.97 25.06 23.60 23.42 23.39 27.74 28.43 26.15 23.71 26.43 30.80 32.87 34.20 35.10 35.90 34.32 33.29 34.34 37.22 41.88 46.68 55.59 58.06 59.52 60.63 61.33 62.42 62.87 62.82 62.25 60.14 58.64 57.39 55.87 55.99 57.66 58.40 59.08 58.74
24.72 29.42 27.77 25.94 24.86 26.36 20.30 27.18 26.64 25.11 23.29 17.57 26.39 14.07 21.99 26.24 27.92 30.63 32.97 34.38 34.38 33.21 35.27 36.58 39.87 46.02 54.43 57.52 58.87 60.35 61.36 61.77 62.12 62.19 60.92 58.57 57.15 55.30 56.29 56.77 57.07 57.46 58.16 57.64
22.71 24.70 23.95 21.13 25.51 29.07 23.61 28.53 26.38 25.93 23.55 22.88 22.72 19.22 19.94 26.76 25.55 28.43 31.34 33.49 34.19 33.79 35.22 36.03 38.11 46.84 54.40 56.39 58.26 59.65 60.51 61.39 62.00 61.42 60.54 58.54 57.86 58.10 57.25 56.25 55.47 56.69 56.51 56.44
25.72 29.75 26.69 26.60 29.94 29.07 29.67 26.23 26.28 26.62 23.86 14.64 21.16 19.25 17.48 20.26 25.58 27.59 30.40 32.00 33.80 33.35 34.86 36.28 38.48 42.87 53.83 55.16 56.67 58.68 58.15 58.36 61.02 60.93 60.45 59.44 57.81 56.52 55.39 55.25 55.10 55.30 53.81 52.98
22.36 23.76 29.13 30.34 24.26 29.15 28.05 20.94 8.16 7.03 7.64 9.69 23.01 20.44 22.51 28.08 30.46 31.21 31.60 32.78 32.76 33.69 33.97 34.93 36.58 39.46 47.08 54.19 55.16 56.24 56.79 56.79 59.22 59.80 59.06 58.60 58.47 57.01 56.06 55.73 55.77 54.57 51.90 50.06
11.86 12.16 23.16 27.19 25.61 24.29 25.07 24.63 15.37 9.40 7.34 13.28 24.13 18.29 24.57 28.21 28.39 29.78 30.73 34.26 34.31 32.85 34.85 35.51 36.81 38.73 44.88 54.01 54.83 55.60 56.90 56.67 58.97 59.26 58.60 58.63 58.64 58.31 57.32 57.21 56.66 55.41 54.91 54.97
15.16 14.27 27.41 28.18 30.29 29.34 21.85 20.41 24.06 17.20 18.46 15.81 21.44 25.61 30.51 25.10 23.12 25.67 29.03 34.40 31.02 32.14 33.42 35.32 36.49 39.55 45.70 52.97 55.92 56.97 56.67 56.45 56.55 59.52 59.31 58.62 58.65 58.17 56.90 56.79 56.35 55.97 55.02 54.36
21.98 14.06 24.99 27.71 28.21 29.90 24.89 26.19 14.32 17.81 6.57 6.44 17.56 18.96 13.74 15.98 17.39 21.02 34.17 32.73 30.73 32.22 33.64 34.89 36.83 41.37 49.58 52.48 54.65 55.63 56.09 55.84 57.62 57.15 54.97 51.83 50.67 50.33 50.01 45.42 41.98 41.03 41.21 41.08
25.01 20.28 20.24 24.53 17.14 19.17 19.91 15.72 17.73 18.15 15.97 12.36 12.63 14.83 20.45 16.76 17.80 27.30 35.49 34.73 30.72 32.49 35.53 39.59 45.18 45.34 45.52 45.23 45.02 45.73 46.51 45.45 45.48 45.38 44.17 42.43 41.27 40.88 40.56 39.88 39.44 38.81 38.66 38.31
26.39 21.23 14.14 18.10 24.80 26.45 23.03 16.49 17.34 10.81 13.46 15.05 17.06 15.49 21.02 18.29 19.20 32.78 35.82 37.49 37.64 38.36 39.19 39.94 40.22 39.88 39.94 40.72 40.71 40.61 42.42 41.29 41.16 40.93 40.00 39.71 39.40 39.16 38.63 38.31 38.53 38.61 37.70 37.91
26.59 20.00 11.28 14.17 21.80 23.05 18.83 17.95 17.54 20.02 18.98 11.72 7.04 10.03 19.87 17.07 17.29 26.07 31.89 33.64 34.69 35.48 35.78 36.17 36.34 36.31 36.54 37.03 37.27 38.19 38.57 37.52 37.94 37.77 37.02 36.51 36.11 36.08 36.02 36.32 36.43 36.13 35.32 34.53
28.40 22.41 16.98 11.92 13.94 17.90 14.35 16.39 16.95 14.41 4.57 9.18 10.49 9.50 13.36 12.69 13.52 18.73 27.54 30.10 30.92 31.88 32.85 33.45 33.74 34.19 34.84 35.39 35.66 35.83 35.92 36.62 36.48 36.14 35.55 34.85 34.75 34.50 34.03 33.79 33.55 33.40 33.46 32.90
25.62 14.34 19.20 17.06 19.39 19.45 16.98 15.81 14.72 10.44 10.68 7.66 10.34 10.42 12.66 12.61 12.92 16.52 23.20 25.32 25.52 27.36 28.92 29.57 29.97 31.07 32.13 32.51 33.25 33.72 34.13 34.63 34.88 33.91 33.36 32.84 33.17 33.05 32.55 32.02 31.83 31.88 31.56 30.73
25.50 12.34 13.88 13.27 19.72 20.65 17.82 17.89 17.33 14.16 12.04 12.19 14.28 13.03 16.31 15.75 14.96 14.33 16.83 19.59 21.09 22.94 24.36 25.70 27.38 28.19 28.49 29.24 29.76 30.28 30.48 31.08 32.06 31.34 31.09 31.57 31.13 30.56 30.00 29.91 29.40 28.11 27.14 27.25
21.96 21.15 9.87 5.58 17.26 20.75 13.48 16.65 16.42 15.15 14.12 12.42 6.04 11.03 15.96 13.05 10.99 10.67 12.82 15.33 15.73 19.25 21.46 22.19 22.89 24.57 25.51 26.24 27.48 27.00 27.85 28.73 28.41 28.54 28.95 29.23 29.21 28.45 28.13 27.58 26.36 24.55 23.95 24.24
22.51 21.99 13.63 6.27 9.13 9.85 21.35 24.22 21.04 17.60 16.28 14.61 13.20 13.24 15.82 16.41 14.25 13.57 13.67 13.34 13.28 15.16 17.72 19.83 21.19 21.84 23.48 25.03 25.05 25.45 25.63 25.12 24.71 24.72 25.40 26.36 26.20 26.07 25.03 23.57 22.24 21.71 21.76 21.19
24.32 19.30 10.49 7.66 5.61 21.27 21.60 21.46 17.71 14.45 16.46 16.56 13.04 13.12 14.73 22.34 21.63 13.14 14.25 14.33 13.86 14.32 15.88 18.06 19.93 20.51 21.38 21.99 23.13 22.70 21.70 21.84 21.77 20.90 21.13 21.95 22.13 21.34 21.31 20.76 20.46 20.38 19.97 19.76
25.13 20.34 12.00 2.17 1.53 6.58 18.02 21.08 23.63 21.91 16.13 17.76 15.55 12.81 12.37 18.64 11.27 8.69 13.20 13.77 13.83 14.93 14.90 15.40 17.91 19.47 19.13 19.43 20.77 19.92 19.41 19.55 18.88 19.45 19.75 20.07 20.17 19.45 18.48 18.80 18.40 19.28 19.48 19.13
15.54 12.73 6.43 4.46 5.16 13.08 17.07 20.07 22.70 15.32 16.97 18.02 17.48 15.11 13.01 8.13 7.42 7.63 12.44 12.26 13.43 13.95 14.76 14.84 14.87 14.02 16.46 18.46 18.08 16.41 16.28 15.96 18.74 19.53 19.26 19.03 18.92 18.21 18.00 17.50 17.25 16.95 16.57 16.25
17.69 13.76 9.52 4.69 8.12 16.00 20.17 21.06 15.20 13.64 12.74 11.74 11.90 12.71 11.19 9.67 8.75 9.86 11.46 11.73 12.40 11.78 13.16 14.25 12.51 11.98 13.53 16.40 16.30 14.32 13.32 15.44 16.17 16.14 16.13 16.69 16.89 17.78 17.53 15.95 16.09 15.31 14.42 13.27
14.83 19.18 13.38 13.95 12.58 15.12 13.02 14.44 15.61 11.65 8.93 9.35 15.12 16.74 16.24 13.88 12.22 12.45 11.30 11.29 11.61 11.61 11.67 12.33 11.61 10.58 10.49 12.05 13.68 11.70 12.80 14.19 13.41 12.65 12.01 13.14 14.21 16.18 16.62 14.90 14.96 13.90 13.31 11.81
22.24 24.45 19.75 18.40 19.30 13.36 12.98 17.00 16.97 17.48 18.93 19.47 19.37 18.08 17.27 13.74 13.28 11.93 11.96 10.89 10.15 10.38 9.56 10.46 9.44 7.95 7.29 8.65 9.53 10.11 11.85 12.10 10.07 9.29 9.83 10.09 9.61 10.64 12.08 14.49 14.36 13.78 13.46 11.15
22.06 23.56 21.77 21.89 21.89 18.06 18.77 20.02 19.05 18.48 18.46 18.37 17.98 17.44 15.58 13.86 11.08 10.85 10.40 9.68 9.09 8.52 8.00 7.99 7.12 5.96 5.14 6.15 5.68 5.62 7.49 8.44 8.64 7.78 7.89 7.49 7.60 6.79 6.76 8.89 13.36 12.77 14.40 15.78
23.43 22.48 20.55 18.54 23.19 21.67 21.41 20.29 21.35 19.39 18.33 17.63 16.08 14.49 15.04 14.18 11.45 10.42 8.14 7.99 7.49 6.25 6.50 5.71 4.91 4.25 3.47 3.35 2.51 2.63 3.20 5.38 6.58 6.04 5.56 5.09 4.96 4.44 4.65 3.86 3.90 13.65 15.82 16.36
MSLP
1015.91 1015.99 1015.77 1015.52 1015.23 1014.84 1014.52 1013.93 1012.77 1011.94 1011.67 1011.38 1010.80 1009.43 1008.99 1008.51 1008.40 1007.92 1007.17 1007.16 1006.76 1006.10 1005.15 1004.47 1003.72 1003.52 1003.98 1004.77 1004.60 1004.54 1003.97 1005.49 1006.39 1006.82 1007.82 1009.23 1009.73 1010.28 1010.77 1011.14 1011.43 1011.93 1012.40 1013.00
1016.58 1015.74 1014.97 1014.79 1014.64 1014.55 1014.22 1013.59 1012.13 1011.24 1011.00 1010.69 1009.80 1008.24 1008.09 1007.69 1007.24 1006.96 1006.52 1006.12 1006.19 1005.82 1005.02 1004.33 1003.61 1003.13 1003.68 1004.36 1004.51 1004.75 1004.91 1005.09 1005.72 1006.54 1007.22 1008.22 1009.16 1009.78 1010.27 1010.70 1010.98 1011.26 1011.86 1012.36
1016.63 1015.15 1014.81 1014.67 1014.25 1014.21 1013.43 1013.06 1012.02 1011.43 1010.68 1009.97 1009.45 1007.49 1007.21 1005.79 1006.04 1005.70 1005.27 1004.89 1005.28 1005.34 1004.98 1004.33 1004.01 1003.78 1004.13 1003.95 1004.07 1004.60 1004.32 1004.61 1005.05 1005.96 1007.03 1008.03 1009.02 1009.70 1010.35 1010.79 1010.90 1011.10 1011.32 1012.01
1016.22 1014.96 1014.98 1014.52 1014.29 1014.08 1012.96 1012.12 1011.87 1011.52 1011.02 1009.76 1008.88 1006.63 1005.88 1005.28 1004.83 1004.65 1004.25 1004.08 1004.29 1004.67 1004.59 1004.46 1004.35 1004.03 1003.67 1003.82 1003.83 1004.40 1004.74 1004.81 1005.10 1005.75 1006.52 1007.21 1007.83 1008.78 1009.20 1009.72 1010.16 1010.77 1011.04 1011.52
1016.58 1015.32 1014.97 1014.85 1014.19 1014.11 1012.70 1012.19 1011.84 1011.40 1010.79 1010.16 1008.76 1008.35 1005.00 1004.56 1004.23 1003.70 1003.35 1003.13 1003.49 1003.94 1004.08 1004.05 1004.06 1003.49 1003.10 1003.44 1004.12 1004.30 1004.69 1004.87 1004.75 1005.48 1006.37 1007.07 1007.67 1008.15 1008.86 1009.37 1010.02 1010.38 1010.78 1011.08
1016.77 1015.70 1015.41 1015.12 1014.01 1013.48 1012.91 1012.18 1010.94 1010.51 1010.39 1009.66 1007.55 1007.94 1005.08 1004.86 1004.59 1004.03 1003.54 1003.23 1003.09 1003.37 1003.65 1003.49 1003.46 1003.32 1003.32 1003.80 1004.16 1004.21 1004.84 1005.01 1005.50 1005.55 1006.48 1006.86 1007.55 1008.20 1008.98 1009.60 1009.97 1010.52 1010.65 1011.07
1017.10 1016.09 1015.59 1015.20 1014.31 1013.05 1012.95 1012.43 1011.85 1011.07 1010.35 1008.97 1007.43 1007.50 1005.36 1005.61 1006.11 1005.96 1004.92 1003.72 1003.01 1003.15 1003.41 1003.41 1003.54 1003.77 1003.79 1003.43 1003.83 1004.59 1005.11 1005.84 1006.18 1006.15 1005.67 1006.53 1007.48 1007.88 1008.41 1009.18 1009.52 1010.13 1010.55 1010.95
1019.62 1017.20 1016.38 1015.74 1015.87 1014.66 1013.47 1012.99 1013.42 1011.92 1010.57 1009.01 1007.81 1007.04 1006.58 1006.86 1006.60 1005.44 1004.15 1003.69 1002.86 1002.84 1003.01 1003.13 1003.27 1003.62 1003.44 1003.32 1003.71 1004.40 1005.09 1005.21 1005.55 1005.95 1006.28 1006.78 1007.04 1007.59 1008.09 1008.45 1009.26 1009.81 1010.03 1010.21
1020.64 1018.68 1016.71 1016.21 1015.42 1015.24 1013.96 1013.69 1013.42 1012.25 1010.19 1009.60 1007.90 1007.25 1006.88 1008.12 1006.70 1005.91 1003.19 1003.02 1002.71 1002.75 1003.14 1003.21 1003.39 1003.76 1003.65 1003.81 1003.99 1004.22 1004.56 1004.80 1005.22 1005.85 1006.22 1006.64 1006.93 1007.59 1008.10 1008.79 1009.33 1009.75 1010.07 1010.70
1021.20 1019.63 1017.24 1015.90 1015.70 1015.56 1015.50 1015.10 1013.79 1012.51 1012.09 1010.46 1008.97 1009.60 1011.58 1010.37 1008.85 1005.66 1002.86 1002.69 1002.83 1002.86 1003.35 1003.53 1003.92 1004.23 1004.60 1004.76 1004.61 1004.91 1005.52 1006.04 1005.69 1007.07 1007.06 1007.75 1008.45 1008.96 1009.50 1010.22 1011.22 1011.35 1011.72 1011.79
1021.22 1020.82 1018.12 1017.31 1017.37 1017.23 1016.41 1016.37 1015.56 1014.78 1013.72 1012.49 1011.51 1012.53 1013.97 1013.57 1011.32 1007.38 1004.76 1003.89 1003.85 1003.77 1004.31 1004.89 1005.31 1005.78 1006.13 1006.08 1005.45 1006.56 1007.65 1007.79 1008.63 1009.02 1009.29 1009.56 1010.50 1010.87 1011.29 1011.90 1012.55 1012.71 1013.11 1013.66
1021.47 1020.91 1019.70 1018.88 1018.51 1018.34 1018.44 1018.29 1017.26 1016.50 1014.67 1014.41 1013.65 1014.55 1015.35 1015.14 1013.02 1008.89 1006.90 1006.19 1005.63 1005.49 1006.13 1006.73 1007.26 1007.54 1007.65 1007.66 1008.00 1008.97 1009.61 1009.72 1010.67 1010.07 1010.66 1011.38 1012.25 1012.71 1012.93 1013.62 1014.14 1014.31 1014.35 1014.92
1021.72 1021.20 1020.71 1019.12 1019.20 1019.07 1019.15 1019.33 1018.41 1016.70 1016.21 1017.14 1017.24 1017.87 1017.50 1016.94 1014.41 1012.18 1010.13 1008.37 1007.61 1008.11 1008.56 1009.01 1009.43 1009.84 1009.92 1010.45 1010.24 1010.90 1011.61 1011.78 1012.15 1012.53 1012.82 1013.57 1014.17 1014.70 1014.95 1015.48 1015.52 1015.67 1016.67 1016.69
1022.16 1022.16 1021.88 1021.70 1021.80 1021.66 1020.83 1020.49 1019.91 1018.95 1019.42 1019.92 1020.20 1020.45 1019.41 1018.62 1017.38 1015.68 1013.45 1011.36 1010.86 1011.03 1011.13 1011.63 1011.78 1012.15 1012.39 1012.47 1012.27 1012.80 1013.23 1013.85 1014.35 1014.29 1014.72 1015.21 1015.96 1016.72 1016.98 1017.22 1017.72 1018.04 1017.86 1018.98
1022.64 1022.79 1022.42 1021.95 1021.99 1021.87 1022.17 1021.96 1021.73 1021.38 1022.25 1021.72 1022.03 1022.15 1022.05 1021.77 1020.80 1018.86 1017.08 1015.11 1013.91 1013.87 1013.88 1014.56 1014.67 1014.30 1014.70 1014.55 1014.80 1015.27 1015.63 1016.21 1016.52 1016.09 1016.90 1017.31 1018.15 1018.42 1018.73 1019.32 1019.16 1019.77 1019.98 1020.64
1023.17 1023.32 1023.26 1022.75 1022.30 1022.19 1022.25 1022.66 1022.68 1022.94 1023.45 1023.31 1023.19 1023.00 1023.88 1023.88 1022.97 1020.80 1019.23 1017.89 1017.21 1017.32 1017.52 1017.33 1016.35 1016.85 1017.18 1017.14 1017.22 1017.62 1018.09 1018.42 1018.78 1018.75 1019.42 1019.83 1020.16 1020.41 1020.83 1021.08 1020.91 1021.41 1022.05 1022.27
1023.83 1023.99 1024.20 1023.61 1022.79 1022.00 1022.10 1023.48 1024.28 1024.96 1025.51 1025.40 1025.11 1025.90 1025.24 1024.86 1023.85 1023.19 1022.58 1021.69 1021.08 1020.52 1020.19 1019.65 1019.43 1019.38 1019.42 1019.34 1019.69 1019.82 1020.39 1020.55 1020.67 1020.84 1021.33 1021.73 1021.92 1022.11 1022.38 1022.38 1022.73 1023.30 1024.00 1024.08
1024.47 1024.26 1024.54 1024.88 1023.69 1023.35 1024.21 1024.46 1024.89 1025.56 1026.07 1026.23 1026.65 1026.70 1026.33 1026.11 1026.16 1025.57 1025.32 1024.61 1023.96 1023.57 1023.01 1022.50 1022.27 1021.98 1021.85 1021.92 1021.92 1022.22 1021.98 1022.30 1022.54 1022.96 1023.08 1023.55 1023.72 1023.43 1023.91 1024.24 1024.86 1025.63 1025.28 1025.31
1024.59 1024.73 1025.48 1026.04 1025.87 1025.15 1024.48 1025.12 1025.85 1026.46 1027.09 1027.84 1027.85 1027.37 1026.81 1026.01 1026.15 1026.27 1027.34 1027.17 1026.93 1026.21 1025.49 1024.99 1024.58 1024.31 1024.18 1024.00 1023.91 1023.55 1023.32 1023.99 1024.47 1024.95 1025.43 1025.66 1025.50 1025.66 1026.22 1026.36 1026.71 1026.56 1026.57 1026.86
1024.56 1024.88 1026.29 1027.12 1027.81 1027.20 1026.91 1025.85 1026.09 1026.67 1027.98 1028.99 1029.33 1029.14 1028.46 1027.12 1026.97 1030.49 1030.18 1029.50 1028.82 1028.04 1027.45 1026.91 1026.54 1026.20 1025.87 1026.06 1025.78 1025.33 1025.87 1026.16 1026.52 1027.11 1027.40 1027.50 1027.48 1027.40 1027.56 1027.84 1027.99 1028.14 1028.13 1028.47
1026.43 1026.76 1028.36 1028.91 1028.69 1027.92 1027.40 1026.66 1026.16 1027.69 1031.19 1030.73 1030.98 1031.03 1030.81 1030.54 1031.98 1032.18 1031.43 1030.56 1030.00 1029.57 1029.01 1028.71 1028.15 1028.11 1028.18 1027.87 1027.46 1027.10 1027.80 1028.14 1028.79 1028.72 1028.88 1028.75 1028.78 1028.92 1029.28 1029.34 1029.37 1029.45 1029.51 1029.54
1028.58 1028.69 1029.28 1029.38 1029.29 1029.19 1028.04 1027.22 1028.53 1031.00 1031.14 1031.75 1031.96 1032.21 1032.38 1032.53 1032.42 1032.33 1032.03 1031.58 1031.14 1030.73 1030.35 1030.20 1030.00 1029.97 1029.94 1029.51 1029.15 1029.33 1029.68 1030.51 1030.34 1030.19 1030.13 1030.24 1030.33 1030.52 1030.65 1030.66 1030.69 1030.71 1030.58 1030.55
1028.51 1028.62 1029.07 1029.74 1030.16 1030.05 1030.20 1030.82 1031.23 1031.45 1032.02 1032.38 1032.31 1032.39 1032.60 1032.82 1033.00 1033.12 1033.07 1032.90 1032.72 1032.47 1032.30 1032.17 1031.78 1031.77 1031.74 1031.65 1031.27 1031.26 1032.03 1031.87 1031.75 1031.65 1031.95 1032.08 1032.06 1032.05 1031.99 1031.76 1031.74 1031.72 1031.85 1031.78
1028.00 1027.93 1028.42 1029.36 1029.52 1030.13 1030.52 1031.00 1031.34 1031.63 1031.87 1032.10 1032.32 1032.66 1033.10 1033.53 1033.86 1033.98 1033.96 1034.06 1034.08 1034.06 1033.95 1033.86 1033.57 1033.56 1033.75 1033.74 1033.43 1033.38 1033.44 1033.38 1033.25 1033.34 1033.61 1033.73 1033.63 1033.56 1033.39 1033.16 1033.01 1032.80 1032.70 1032.88
1027.42 1027.42 1027.95 1028.83 1029.29 1030.01 1030.30 1030.74 1031.24 1031.73 1032.07 1032.43 1032.80 1033.08 1033.50 1033.98 1034.54 1034.89 1035.12 1035.36 1035.55 1035.58 1035.57 1035.43 1035.36 1035.50 1035.72 1035.67 1035.54 1035.51 1035.27 1034.97 1034.74 1035.00 1035.28 1035.27 1035.18 1035.12 1034.93 1034.54 1033.92 1033.81 1033.70 1033.22
1026.26 1026.12 1026.66 1026.99 1027.23 1028.58 1029.39 1030.13 1030.86 1031.65 1032.31 1032.83 1033.30 1033.91 1034.38 1034.85 1035.31 1035.72 1036.09 1036.39 1036.66 1036.87 1037.01 1036.97 1037.11 1037.13 1037.33 1037.23 1037.24 1037.06 1036.68 1036.32 1036.30 1036.39 1036.62 1036.78 1036.71 1036.68 1036.53 1036.26 1035.88 1034.97 1034.41 1034.09
Wind_Speed
4 3 8 11 12 17 18 19 20 19 16 18 18 21 19 16 9 14 17 8 9 9 9 8 9 6 6 8 8 13 19 17 13 12 11 9 9 9 8 9 11 11 11 10
4 11 12 7 9 14 16 21 23 20 16 13 15 21 16 14 12 12 16 16 9 6 7 8 7 4 7 9 9 11 14 16 15 10 10 7 9 8 7 7 9 11 11 11
6 13 15 12 10 16 17 17 20 20 18 16 15 21 18 17 18 18 19 19 8 10 9 7 6 6 7 8 9 6 11 15 15 14 10 6 6 3 3 4 7 7 10 9
6 5 14 13 14 11 13 5 6 12 9 6 4 11 8 6 13 12 18 17 12 10 8 7 7 7 7 8 7 12 8 15 9 14 12 15 12 9 7 8 7 7 8 9
8 14 15 7 7 9 10 9 12 15 15 10 13 7 5 8 14 17 17 17 12 10 10 9 9 7 5 5 9 7 7 7 13 11 11 10 9 7 4 4 7 7 7 7
15 5 2 3 17 15 18 17 16 12 7 6 11 10 5 2 3 6 6 9 11 11 10 8 8 6 6 7 5 7 7 5 9 11 12 13 11 8 6 5 6 5 3 4
12 6 2 4 9 3 7 5 5 5 2 6 3 9 11 13 14 12 15 14 9 9 9 9 8 7 7 7 9 8 8 7 9 10 11 10 10 9 8 6 5 7 4 4
5 10 7 5 4 8 12 3 3 8 3 3 5 5 1 19 25 25 22 17 9 8 7 8 8 7 6 7 9 9 9 6 4 9 12 11 11 7 7 10 9 7 7 8
5 7 4 8 7 5 11 10 13 8 15 6 4 2 5 30 27 22 21 11 8 9 8 9 6 6 6 6 12 12 8 6 7 9 5 6 8 9 8 8 4 3 2 3
3 8 4 11 5 3 11 12 7 3 5 6 3 7 11 32 34 36 5 6 7 8 7 6 5 6 3 5 8 10 5 8 8 4 8 11 13 13 12 12 12 12 11 12
4 3 7 6 6 13 9 11 5 5 3 4 6 6 15 26 28 25 13 8 6 7 10 10 13 13 13 14 19 17 15 17 15 12 15 17 15 15 15 13 11 12 12 12
2 4 5 3 7 6 9 14 6 1 5 4 4 5 24 26 26 20 15 16 19 21 19 18 17 17 18 18 20 17 15 19 15 15 18 18 17 16 17 15 14 13 14 13
8 3 6 8 1 11 7 21 17 5 4 11 7 8 19 25 28 26 19 21 23 23 22 21 19 19 20 18 19 20 17 18 16 16 18 18 18 17 17 17 16 18 17 18
6 2 3 2 3 8 12 23 21 14 5 7 8 14 25 29 27 24 20 24 25 23 23 21 21 20 20 19 21 21 22 17 17 18 20 20 19 17 17 17 17 18 19 16
3 3 4 5 8 1 17 15 20 19 15 7 11 13 21 22 21 19 17 22 26 25 26 22 20 21 20 21 22 20 21 19 17 21 19 20 18 17 18 17 19 18 19 18
3 4 4 4 1 0 13 21 17 16 17 8 11 14 19 17 16 20 24 24 25 24 22 21 24 23 21 21 20 20 20 19 17 20 19 17 17 18 18 17 19 20 18 18
4 3 4 6 4 4 5 20 12 11 16 8 11 10 15 17 20 25 22 21 21 21 20 21 22 21 20 20 18 20 17 17 19 19 18 17 17 18 17 18 19 19 17 16
7 5 2 4 6 11 4 12 3 5 21 22 13 14 10 6 14 20 22 20 21 19 19 19 17 18 18 17 18 17 18 19 20 19 19 17 17 18 18 18 17 15 14 16
6 3 5 5 4 3 2 11 8 6 13 21 18 19 16 5 6 23 22 19 16 16 15 14 15 16 17 17 16 18 21 19 19 19 17 16 16 17 15 16 15 13 13 13
5 5 6 5 7 5 4 15 9 1 13 18 18 18 18 16 16 8 17 15 15 16 15 15 15 16 17 15 15 19 18 18 18 16 15 15 14 15 15 14 13 12 12 12
9 7 5 5 3 3 2 16 6 8 2 8 12 12 14 11 3 5 8 13 13 13 15 13 16 16 14 13 14 19 17 18 13 14 14 15 15 15 13 13 11 11 11 11
3 4 3 2 6 4 12 4 7 2 2 3 6 6 6 5 5 6 9 12 13 15 15 15 13 14 14 14 14 18 18 12 12 13 14 14 14 11 10 12 11 11 10 10
3 3 3 2 5 3 4 4 2 3 3 2 1 3 4 6 7 9 9 11 12 13 12 11 12 14 14 15 14 15 12 11 12 14 13 12 12 11 11 11 10 9 10 9
1 3 2 2 3 2 2 0 1 2 3 4 4 5 5 7 6 7 7 8 9 10 11 10 11 14 14 12 13 12 10 9 10 12 11 10 10 10 10 9 9 9 8 8
4 4 5 1 2 3 3 3 5 4 5 6 6 6 7 6 5 5 7 8 8 9 8 8 10 11 11 10 11 11 10 6 11 11 10 10 9 9 8 8 7 7 9 10
7 8 6 6 8 5 3 8 8 8 6 6 8 5 5 6 6 7 7 6 6 7 7 8 9 10 9 11 11 11 10 9 8 10 7 6 6 6 7 6 6 15 14 16
Wind_Direction
291 271 253 268 250 262 281 276 268 269 279 277 269 269 270 269 249 261 267 236 234 250 269 296 229 197 176 206 197 187 185 178 174 175 162 181 181 184 188 188 189 187 187 188
310 275 278 270 291 283 272 275 270 277 267 257 260 260 263 255 245 236 257 267 221 237 271 282 305 221 172 197 206 197 191 179 180 181 173 176 178 191 184 182 186 186 184 182
264 265 299 302 285 291 274 267 277 276 294 271 273 273 261 248 245 242 246 249 217 216 243 252 262 248 209 198 183 220 199 186 178 172 163 135 130 116 142 200 200 195 174 175
267 274 320 315 302 296 286 255 285 293 288 279 150 288 244 240 232 227 237 239 225 198 219 228 233 240 197 209 186 195 211 185 183 170 168 165 172 170 184 196 190 172 180 187
268 306 333 324 285 307 263 301 282 276 275 283 232 266 264 227 245 240 225 231 225 194 199 222 225 223 202 179 202 186 176 197 186 178 170 170 174 177 174 175 163 185 183 190
291 287 210 264 298 286 278 292 278 259 244 247 238 190 306 197 282 308 247 238 219 189 204 215 212 219 211 193 177 169 160 150 265 184 175 186 184 166 162 172 179 188 178 167
329 313 8 327 319 295 325 293 319 340 352 229 351 181 261 332 356 335 319 293 229 192 194 200 209 205 213 182 169 164 158 175 219 198 180 173 182 167 165 164 204 175 186 192
340 328 11 330 338 296 305 340 351 298 266 272 104 244 229 10 343 326 311 284 252 178 190 198 197 203 207 185 184 173 165 188 134 193 190 180 179 186 180 198 203 209 212 224
310 274 283 298 313 325 331 323 294 245 255 247 210 351 188 347 326 320 278 243 191 174 183 201 199 193 203 168 178 175 173 177 171 254 199 189 174 177 182 188 213 225 257 333
285 293 295 320 15 317 340 345 328 338 337 317 327 71 353 344 330 326 34 158 152 157 172 187 144 176 77 85 86 65 30 29 53 33 31 53 44 41 48 56 56 57 49 47
278 234 302 6 9 356 0 355 313 291 253 296 338 94 7 339 329 323 30 39 85 79 60 70 73 66 66 63 62 57 57 60 54 61 64 54 50 56 57 57 57 67 70 69
333 285 291 262 282 336 38 357 317 266 340 319 274 74 5 345 337 358 47 71 72 72 73 65 61 61 58 59 63 61 60 66 61 58 66 63 55 53 58 59 55 52 65 63
359 335 326 350 331 11 12 3 356 308 336 23 21 338 345 347 357 360 38 59 62 63 64 63 60 59 60 61 63 61 58 62 63 64 67 67 62 59 58 56 55 58 49 53
353 300 255 263 125 25 5 13 11 15 45 331 23 351 354 354 358 354 23 52 61 61 61 62 60 62 61 62 65 60 57 54 62 67 67 65 65 60 60 62 57 58 63 55
27 294 325 309 151 303 35 12 15 23 8 37 321 25 8 358 349 356 24 47 56 55 57 57 58 60 57 60 62 61 60 54 56 63 62 64 62 64 64 62 65 62 59 55
339 288 19 306 38 249 27 21 15 19 7 353 360 38 360 360 5 21 30 36 47 51 53 54 53 57 57 58 62 61 58 55 56 61 59 62 63 65 67 66 65 66 59 54
322 310 24 301 302 280 1 15 14 24 28 349 17 327 335 9 20 23 19 30 39 43 47 52 52 53 52 52 55 58 60 60 58 62 59 59 64 64 59 59 60 59 59 58
292 311 85 279 6 38 305 21 352 6 29 18 9 356 352 47 44 34 25 29 30 28 37 44 49 50 50 55 60 64 61 58 57 54 55 53 56 62 61 60 61 61 59 56
209 322 42 70 359 170 35 4 354 8 28 14 2 359 359 360 76 39 19 23 29 29 36 42 48 52 53 53 59 66 62 61 58 55 54 53 55 61 60 60 59 59 61 59
41 50 87 18 67 57 261 336 336 187 33 9 5 5 1 360 57 16 356 10 23 37 37 41 43 54 51 44 55 64 63 62 59 58 59 59 59 63 62 61 56 55 59 59
343 6 62 0 62 316 344 319 308 54 251 1 359 9 18 42 35 288 346 19 28 34 41 41 47 47 43 47 58 63 59 55 56 63 62 59 58 59 57 60 55 54 57 56
335 352 346 4 41 15 9 356 71 173 11 9 355 16 23 21 11 13 18 27 30 33 34 40 52 47 39 42 55 62 56 49 54 60 57 55 54 54 51 54 52 48 45 47
12 146 186 136 209 251 302 127 294 136 134 312 64 35 63 62 51 46 41 36 38 37 37 34 47 52 39 36 44 60 45 49 55 57 52 49 46 49 50 50 49 49 42 41
280 167 120 87 255 259 245 316 127 155 133 105 89 80 77 84 65 58 59 50 46 40 37 36 48 51 47 34 42 46 45 45 58 62 55 48 47 44 36 48 44 43 42 39
207 133 134 291 288 318 234 196 155 141 118 104 76 95 111 114 81 72 68 57 53 51 39 38 54 57 49 39 40 25 19 23 66 59 49 43 43 40 35 33 42 48 33 38
180 176 172 209 174 156 159 167 161 156 151 140 134 109 88 116 111 102 85 69 63 55 40 53 51 57 44 45 41 28 20 31 63 68 55 43 41 33 34 29 22 34 39 37